Location: Forli
(44.2227°N, 12.0407°E)
Time: 03:42:47
(UTC+01:00)

ARIANE 6 FM1 Upper Stage - Pass Details

Date: 21 February 2026
Orbit: 523 x 607 km, 62.0° (Epoch: 6 March)

Event Time Altitude Azimuth Distance (km) Brightness Sun altitude
Rises 18:38:20 0° 315° (NW) 2,658 6.7 -9.5°
Reaches altitude 10° 18:40:35 10° 308° (NW) 1,766 5.9 -9.9°
Maximum altitude 18:44:20 43° 237° (WSW) 753 3.8 -10.6°
Drops below altitude 10° 18:48:06 10° 166° (SSE) 1,774 5.1 -11.3°
Sets 18:50:23 0° 159° (SSE) 2,671 5.9 -11.7°
